EN

Hourly Weather Nyzhnya Yablun'ka

Today, 16 May, Sunday

Time Temperature Precipitation Wind Pressure Humidity
00:00 +9°C° 0 mm 1 mps 701 mmHg 95%
01:00 +9°C° 0 mm 1 mps 701 mmHg 95%
02:00 +9°C° 0 mm 1 mps 701 mmHg 95%
03:00 +9°C° 0 mm 1 mps 700 mmHg 95%
04:00 +9°C° 0 mm 1 mps 700 mmHg 94%
05:00 +9°C° 0 mm 1 mps 700 mmHg 94%
06:00 +10°C° 0 mm 1 mps 700 mmHg 88%
07:00 +12°C° 0 mm 1 mps 700 mmHg 83%
08:00 +14°C° 0 mm 1 mps 701 mmHg 77%
09:00 +15°C° 0.2 mm 2 mps 700 mmHg 73%
10:00 +16°C° 0.2 mm 2 mps 700 mmHg 69%
11:00 +17°C° 0.2 mm 3 mps 700 mmHg 65%
12:00 +16°C° 0.4 mm 3 mps 700 mmHg 67%
13:00 +16°C° 0.4 mm 3 mps 700 mmHg 69%
14:00 +16°C° 0.4 mm 3 mps 700 mmHg 72%
15:00 +16°C° 0.3 mm 3 mps 700 mmHg 73%
16:00 +14°C° 0.3 mm 3 mps 700 mmHg 75%
17:00 +14°C° 0.3 mm 3 mps 700 mmHg 76%
18:00 +12°C° 0.1 mm 3 mps 700 mmHg 81%
19:00 +12°C° 0.1 mm 2 mps 700 mmHg 86%
20:00 +10°C° 0.1 mm 2 mps 700 mmHg 91%
21:00 +11°C° 0 mm 1 mps 700 mmHg 92%
22:00 +10°C° 0 mm 1 mps 700 mmHg 93%
23:00 +10°C° 0 mm 1 mps 700 mmHg 93%

Tomorrow, 17 May, Monday

Time Temperature Precipitation Wind Pressure Humidity
00:00 +9°C° 0 mm 1 mps 700 mmHg 95%
01:00 +9°C° 0 mm 1 mps 700 mmHg 96%
02:00 +8°C° 0 mm 1 mps 700 mmHg 97%
03:00 +8°C° 0 mm 1 mps 700 mmHg 97%
04:00 +9°C° 0 mm 1 mps 700 mmHg 97%
05:00 +9°C° 0 mm 1 mps 700 mmHg 97%
06:00 +10°C° 0 mm 1 mps 700 mmHg 91%
07:00 +11°C° 0 mm 1 mps 700 mmHg 85%
08:00 +13°C° 0 mm 1 mps 700 mmHg 80%
09:00 +14°C° 0 mm 2 mps 700 mmHg 74%
10:00 +15°C° 0 mm 2 mps 700 mmHg 68%
11:00 +16°C° 0 mm 2 mps 700 mmHg 62%
12:00 +17°C° 0 mm 2 mps 699 mmHg 58%
13:00 +18°C° 0 mm 3 mps 699 mmHg 54%
14:00 +19°C° 0 mm 3 mps 699 mmHg 50%
15:00 +17°C° 0.2 mm 3 mps 698 mmHg 60%
16:00 +16°C° 0.2 mm 3 mps 698 mmHg 70%
17:00 +13°C° 0.2 mm 3 mps 698 mmHg 79%
18:00 +13°C° 0.2 mm 2 mps 698 mmHg 84%
19:00 +12°C° 0.2 mm 2 mps 697 mmHg 89%
20:00 +11°C° 0.2 mm 1 mps 697 mmHg 94%
21:00 +10°C° 0.8 mm 2 mps 697 mmHg 95%
22:00 +10°C° 0.8 mm 2 mps 697 mmHg 96%
23:00 +10°C° 0.8 mm 2 mps 697 mmHg 98%

Day after tomorrow, 18 May, Tuesday

Time Temperature Precipitation Wind Pressure Humidity
00:00 +9°C° 1.8 mm 2 mps 697 mmHg 97%
01:00 +8°C° 1.8 mm 2 mps 697 mmHg 97%
02:00 +7°C° 1.8 mm 2 mps 698 mmHg 97%
03:00 +7°C° 0.3 mm 2 mps 698 mmHg 96%
04:00 +7°C° 0.3 mm 2 mps 698 mmHg 96%
05:00 +7°C° 0.3 mm 3 mps 698 mmHg 95%
06:00 +7°C° 0.1 mm 3 mps 699 mmHg 94%
07:00 +7°C° 0.1 mm 3 mps 699 mmHg 94%
08:00 +8°C° 0.1 mm 3 mps 699 mmHg 93%
09:00 +7°C° 0.3 mm 4 mps 699 mmHg 91%
10:00 +8°C° 0.3 mm 4 mps 700 mmHg 88%
11:00 +8°C° 0.3 mm 4 mps 700 mmHg 86%
12:00 +10°C° 0.4 mm 4 mps 700 mmHg 84%
13:00 +10°C° 0.4 mm 4 mps 700 mmHg 81%
14:00 +11°C° 0.4 mm 4 mps 700 mmHg 79%
15:00 +11°C° 0.6 mm 3 mps 700 mmHg 80%
16:00 +11°C° 0.6 mm 3 mps 700 mmHg 82%
17:00 +10°C° 0.6 mm 3 mps 700 mmHg 84%
18:00 +9°C° 0.3 mm 2 mps 701 mmHg 87%
19:00 +8°C° 0.3 mm 2 mps 701 mmHg 90%
20:00 +8°C° 0.3 mm 1 mps 701 mmHg 93%
21:00 +8°C° 0 mm 1 mps 701 mmHg 93%
22:00 +6°C° 0 mm 2 mps 701 mmHg 94%
23:00 +5°C° 0 mm 2 mps 702 mmHg 94%

19 May, Wednesday

Time Temperature Precipitation Wind Pressure Humidity
00:00 +5°C° 0 mm 2 mps 702 mmHg 94%
01:00 +6°C° 0 mm 1 mps 702 mmHg 94%
02:00 +6°C° 0 mm 1 mps 702 mmHg 94%
03:00 +6°C° 0 mm 1 mps 702 mmHg 95%
04:00 +6°C° 0 mm 1 mps 702 mmHg 95%
05:00 +5°C° 0 mm 1 mps 702 mmHg 95%
06:00 +6°C° 0 mm 2 mps 703 mmHg 92%
07:00 +7°C° 0 mm 2 mps 703 mmHg 89%
08:00 +8°C° 0 mm 2 mps 703 mmHg 86%
09:00 +9°C° 0.2 mm 3 mps 704 mmHg 83%
10:00 +10°C° 0.2 mm 3 mps 704 mmHg 80%
11:00 +10°C° 0.2 mm 3 mps 704 mmHg 77%
12:00 +10°C° 0.3 mm 3 mps 704 mmHg 76%
13:00 +11°C° 0.3 mm 3 mps 704 mmHg 75%
14:00 +11°C° 0.3 mm 3 mps 704 mmHg 74%
15:00 +11°C° 0.3 mm 3 mps 704 mmHg 75%
16:00 +12°C° 0.3 mm 2 mps 704 mmHg 76%
17:00 +12°C° 0.3 mm 2 mps 705 mmHg 77%
18:00 +10°C° 0.1 mm 2 mps 705 mmHg 82%
19:00 +8°C° 0.1 mm 2 mps 705 mmHg 88%
20:00 +8°C° 0.1 mm 1 mps 705 mmHg 93%
21:00 +7°C° 0 mm 1 mps 705 mmHg 94%
22:00 +7°C° 0 mm 1 mps 706 mmHg 95%
23:00 +6°C° 0 mm 1 mps 706 mmHg 96%

20 May, Thursday

Time Temperature Precipitation Wind Pressure Humidity
00:00 +6°C° 0 mm 1 mps 706 mmHg 96%
01:00 +6°C° 0 mm 1 mps 706 mmHg 97%
02:00 +6°C° 0 mm 1 mps 706 mmHg 97%
03:00 +6°C° 0 mm 1 mps 706 mmHg 97%
04:00 +5°C° 0 mm 1 mps 707 mmHg 97%
05:00 +5°C° 0 mm 1 mps 707 mmHg 97%
06:00 +7°C° 0 mm 1 mps 707 mmHg 90%
07:00 +9°C° 0 mm 1 mps 707 mmHg 83%
08:00 +10°C° 0 mm 1 mps 708 mmHg 76%
09:00 +10°C° 0.1 mm 2 mps 708 mmHg 68%
10:00 +13°C° 0.1 mm 2 mps 708 mmHg 60%
11:00 +14°C° 0.1 mm 2 mps 708 mmHg 52%
12:00 +14°C° 0 mm 2 mps 708 mmHg 52%
13:00 +14°C° 0 mm 2 mps 707 mmHg 51%
14:00 +14°C° 0 mm 2 mps 707 mmHg 50%
15:00 +15°C° 0 mm 2 mps 707 mmHg 50%
16:00 +15°C° 0 mm 2 mps 707 mmHg 49%
17:00 +15°C° 0 mm 2 mps 707 mmHg 49%
18:00 +13°C° 0 mm 2 mps 707 mmHg 61%
19:00 +11°C° 0 mm 1 mps 707 mmHg 73%
20:00 +9°C° 0 mm 1 mps 707 mmHg 85%
21:00 +9°C° 0 mm 1 mps 707 mmHg 88%
22:00 +7°C° 0 mm 2 mps 707 mmHg 90%
23:00 +6°C° 0 mm 2 mps 707 mmHg 93%

21 May, Friday

Time Temperature Precipitation Wind Pressure Humidity
00:00 +7°C° 0 mm 2 mps 707 mmHg 92%
01:00 +7°C° 0 mm 2 mps 707 mmHg 91%
02:00 +7°C° 0 mm 3 mps 706 mmHg 90%
03:00 +7°C° 0 mm 3 mps 706 mmHg 89%
04:00 +7°C° 0 mm 3 mps 706 mmHg 88%
05:00 +6°C° 0 mm 4 mps 706 mmHg 86%
06:00 +8°C° 0 mm 4 mps 706 mmHg 81%
07:00 +9°C° 0 mm 5 mps 706 mmHg 76%
08:00 +10°C° 0 mm 6 mps 706 mmHg 71%
09:00 +11°C° 0 mm 7 mps 706 mmHg 66%
10:00 +14°C° 0 mm 7 mps 706 mmHg 61%
11:00 +15°C° 0 mm 7 mps 706 mmHg 55%
12:00 +15°C° 0 mm 7 mps 706 mmHg 55%
13:00 +16°C° 0 mm 7 mps 706 mmHg 54%
14:00 +16°C° 0 mm 7 mps 706 mmHg 53%
15:00 +16°C° 0 mm 6 mps 706 mmHg 57%
16:00 +15°C° 0 mm 5 mps 706 mmHg 60%
17:00 +14°C° 0 mm 4 mps 706 mmHg 64%
18:00 +13°C° 0 mm 3 mps 705 mmHg 71%
19:00 +13°C° 0 mm 2 mps 705 mmHg 78%
20:00 +12°C° 0 mm 2 mps 705 mmHg 85%
21:00 +10°C° 0.1 mm 2 mps 705 mmHg 87%
22:00 +10°C° 0.1 mm 2 mps 704 mmHg 89%
23:00 +9°C° 0.1 mm 2 mps 704 mmHg 92%
Show more

We Need Your Consent

Meteoprog and our Service Providers may store and access personal data such as cookies, device identifiers or other similar technologies on your device and process such data to personalise content and ads, as well as provide social media features and to analyse the traffic.

  • Store and/or access information on your device

    Cookies, device identifiers or other information can be stored or accessed on your device for the purposes indicated above.

  • Personalised ads and content, ad and content measurement, audience insights, and products development

    Ads and content can be personalised based on a profile. More data can be added to better personalise ads and content. Ad and content performance can be measured. Insights about the audience who saw the ads and content can be derived. Such data can be used to develop or improve user’s experience, systems and software.

By clicking ‘I Agree’ you will allow the use of indicated cookies, device identifiers, web beacons or other similar technologies. Your settings can be changed in the browser on your device.

For certain purposes, legitimate interests may be relied on, rather than consent. You can read more about this in our Privacy and Cookie Policy.